| time (UTC) | temp F | wind direction | speed MPH | gust MPH | rain 1hr in | rain 24hr in | rain mn in | humidity % | barometer mb |
| 20260902224517 | 95 | 42 | 0.0 | 6.0 | 0.00 | 0.00 | 0.00 | 43 | 1016.8 |
| 20260902224017 | 95 | 42 | 2.0 | 5.0 | 0.00 | 0.00 | 0.00 | 43 | 1016.8 |
| 20260902223517 | 95 | 79 | 2.0 | 6.0 | 0.00 | 0.00 | 0.00 | 42 | 1016.8 |
| 20260902223017 | 95 | 100 | 3.0 | 9.0 | 0.00 | 0.00 | 0.00 | 42 | 1016.9 |
| 20260902222517 | 96 | 106 | 2.0 | 6.0 | 0.00 | 0.00 | 0.00 | 42 | 1016.9 |
| 20260902222017 | 96 | 86 | 0.0 | 10.0 | 0.00 | 0.00 | 0.00 | 42 | 1017.0 |
| 20260902221516 | 96 | 99 | 0.0 | 7.0 | 0.00 | 0.00 | 0.00 | 42 | 1017.0 |
| 20260902221017 | 96 | 68 | 1.0 | 8.0 | 0.00 | 0.00 | 0.00 | 41 | 1017.0 |
| 20260902220517 | 96 | 72 | 0.0 | 6.0 | 0.00 | 0.00 | 0.00 | 42 | 1017.0 |
| 20260902220017 | 96 | 66 | 1.0 | 5.0 | 0.00 | 0.00 | 0.00 | 41 | 1017.0 |
| 20260902215517 | 97 | 93 | 3.0 | 6.0 | 0.00 | 0.00 | 0.00 | 41 | 1017.0 |
| 20260902215017 | 97 | 86 | 0.0 | 9.0 | 0.00 | 0.00 | 0.00 | 40 | 1016.9 |
| 20260902214517 | 97 | 92 | 0.0 | 8.0 | 0.00 | 0.00 | 0.00 | 40 | 1016.9 |
| 20260902214017 | 98 | 90 | 5.0 | 7.0 | 0.00 | 0.00 | 0.00 | 39 | 1016.9 |
| 20260902213517 | 98 | 68 | 4.0 | 7.0 | 0.00 | 0.00 | 0.00 | 38 | 1017.0 |
| 20260902213017 | 99 | 86 | 3.0 | 8.0 | 0.00 | 0.00 | 0.00 | 37 | 1017.0 |
| 20260902212517 | 99 | 71 | 0.0 | 4.0 | 0.00 | 0.00 | 0.00 | 37 | 1017.0 |
| 20260902212017 | 99 | 48 | 0.0 | 2.0 | 0.00 | 0.00 | 0.00 | 36 | 1016.9 |
| 20260902211516 | 99 | 65 | 1.0 | 8.0 | 0.00 | 0.00 | 0.00 | 36 | 1017.0 |
| 20260902211018 | 99 | 75 | 4.0 | 8.0 | 0.00 | 0.00 | 0.00 | 37 | 1017.1 |
| 20260902210517 | 99 | 18 | 3.0 | 5.0 | 0.00 | 0.00 | 0.00 | 37 | 1017.1 |
| 20260902210017 | 98 | 103 | 1.0 | 5.0 | 0.00 | 0.00 | 0.00 | 38 | 1017.1 |
| 20260902205517 | 98 | 96 | 0.0 | 8.0 | 0.00 | 0.00 | 0.00 | 38 | 1017.2 |
| 20260902205017 | 98 | 85 | 2.0 | 7.0 | 0.00 | 0.00 | 0.00 | 39 | 1017.2 |
| 20260902204517 | 98 | 106 | 0.0 | 8.0 | 0.00 | 0.00 | 0.00 | 39 | 1017.2 |
| 20260902204017 | 99 | 1 | 3.0 | 4.0 | 0.00 | 0.00 | 0.00 | 39 | 1017.3 |
| 20260902203517 | 99 | 347 | 3.0 | 10.0 | 0.00 | 0.00 | 0.00 | 39 | 1017.4 |
| 20260902203017 | 99 | 164 | 4.0 | 4.0 | 0.00 | 0.00 | 0.00 | 38 | 1017.5 |
| 20260902202517 | 99 | 80 | 1.0 | 8.0 | 0.00 | 0.00 | 0.00 | 37 | 1017.6 |
| 20260902202017 | 99 | 130 | 0.0 | 6.0 | 0.00 | 0.00 | 0.00 | 37 | 1017.6 |
| 20260902201517 | 99 | 97 | 2.0 | 5.0 | 0.00 | 0.00 | 0.00 | 36 | 1017.7 |
| 20260902201018 | 99 | 83 | 1.0 | 10.0 | 0.00 | 0.00 | 0.00 | 37 | 1017.7 |
| 20260902200517 | 98 | 82 | 3.0 | 7.0 | 0.00 | 0.00 | 0.00 | 38 | 1017.8 |
| 20260902200017 | 98 | 47 | 4.0 | 8.0 | 0.00 | 0.00 | 0.00 | 38 | 1017.8 |
| 20260902195517 | 98 | 89 | 0.0 | 5.0 | 0.00 | 0.00 | 0.00 | 37 | 1017.8 |
| 20260902195017 | 98 | 93 | 0.0 | 9.0 | 0.00 | 0.00 | 0.00 | 39 | 1017.9 |
| 20260902194518 | 97 | 102 | 2.0 | 5.0 | 0.00 | 0.00 | 0.00 | 39 | 1018.0 |
| 20260902194017 | 97 | 145 | 0.0 | 5.0 | 0.00 | 0.00 | 0.00 | 39 | 1018.2 |
| 20260902193517 | 97 | 64 | 0.0 | 7.0 | 0.00 | 0.00 | 0.00 | 39 | 1018.2 |
| 20260902193017 | 97 | 99 | 1.0 | 5.0 | 0.00 | 0.00 | 0.00 | 40 | 1018.3 |
| 20260902192517 | 97 | 37 | 5.0 | 4.0 | 0.00 | 0.00 | 0.00 | 39 | 1018.4 |
| 20260902192017 | 97 | 184 | 1.0 | 5.0 | 0.00 | 0.00 | 0.00 | 38 | 1018.4 |
| 20260902191517 | 97 | 83 | 2.0 | 6.0 | 0.00 | 0.00 | 0.00 | 38 | 1018.5 |
| 20260902191017 | 97 | 25 | 1.0 | 6.0 | 0.00 | 0.00 | 0.00 | 40 | 1018.6 |
| 20260902190517 | 97 | 89 | 1.0 | 7.0 | 0.00 | 0.00 | 0.00 | 40 | 1018.6 |
| 20260902190017 | 96 | 309 | 5.0 | 3.0 | 0.00 | 0.00 | 0.00 | 40 | 1018.7 |
| 20260902185517 | 96 | 229 | 1.0 | 3.0 | 0.00 | 0.00 | 0.00 | 43 | 1018.7 |
| 20260902185017 | 96 | 79 | 1.0 | 9.0 | 0.00 | 0.00 | 0.00 | 41 | 1018.7 |
| 20260902184518 | 96 | 3 | 3.0 | 5.0 | 0.00 | 0.00 | 0.00 | 42 | 1018.8 |
| 20260902184017 | 96 | 73 | 0.0 | 3.0 | 0.00 | 0.00 | 0.00 | 44 | 1018.8 |
| 20260902183517 | 96 | 250 | 0.0 | 5.0 | 0.00 | 0.00 | 0.00 | 42 | 1018.9 |
| 20260902183017 | 96 | 79 | 0.0 | 6.0 | 0.00 | 0.00 | 0.00 | 41 | 1018.9 |
| 20260902182517 | 96 | 178 | 0.0 | 4.0 | 0.00 | 0.00 | 0.00 | 42 | 1019.0 |
| 20260902182017 | 95 | 127 | 2.0 | 6.0 | 0.00 | 0.00 | 0.00 | 43 | 1019.1 |
| 20260902181518 | 95 | 76 | 2.0 | 4.0 | 0.00 | 0.00 | 0.00 | 44 | 1019.1 |
| 20260902181017 | 95 | 288 | 0.0 | 3.0 | 0.00 | 0.00 | 0.00 | 45 | 1019.2 |
| 20260902180517 | 95 | 30 | 0.0 | 4.0 | 0.00 | 0.00 | 0.00 | 46 | 1019.2 |
| 20260902180018 | 95 | 274 | 0.0 | 6.0 | 0.00 | 0.00 | 0.00 | 45 | 1019.2 |
| 20260902175517 | 94 | 44 | 5.0 | 5.0 | 0.00 | 0.00 | 0.00 | 45 | 1019.2 |
| 20260902175017 | 94 | 86 | 0.0 | 3.0 | 0.00 | 0.00 | 0.00 | 47 | 1019.4 |
| 20260902174518 | 95 | 73 | 0.0 | 5.0 | 0.00 | 0.00 | 0.00 | 44 | 1019.4 |
| 20260902174017 | 95 | 182 | 0.0 | 4.0 | 0.00 | 0.00 | 0.00 | 43 | 1019.5 |
| 20260902173518 | 95 | 78 | 0.0 | 7.0 | 0.00 | 0.00 | 0.00 | 43 | 1019.5 |
| 20260902173017 | 96 | 72 | 5.0 | 6.0 | 0.00 | 0.00 | 0.00 | 43 | 1019.6 |
| 20260902172517 | 95 | 112 | 4.0 | 4.0 | 0.00 | 0.00 | 0.00 | 45 | 1019.7 |
| 20260902172017 | 96 | 151 | 0.0 | 5.0 | 0.00 | 0.00 | 0.00 | 44 | 1019.7 |
| 20260902171517 | 96 | 93 | 1.0 | 4.0 | 0.00 | 0.00 | 0.00 | 43 | 1019.7 |
| 20260902171017 | 95 | 110 | 3.0 | 5.0 | 0.00 | 0.00 | 0.00 | 44 | 1019.9 |
| 20260902170517 | 95 | 107 | 0.0 | 3.0 | 0.00 | 0.00 | 0.00 | 46 | 1019.9 |
| 20260902170016 | 95 | 0 | 0.0 | 0.0 | 0.00 | 0.00 | 0.00 | 46 | 1019.9 |
| 20260902165517 | 95 | 0 | 0.0 | 0.0 | 0.00 | 0.00 | 0.00 | 45 | 1020.0 |
| 20260902165017 | 95 | 55 | 0.0 | 4.0 | 0.00 | 0.00 | 0.00 | 44 | 1020.2 |
| 20260902164517 | 95 | 24 | 0.0 | 5.0 | 0.00 | 0.00 | 0.00 | 46 | 1020.2 |
| 20260902164017 | 95 | 85 | 1.0 | 8.0 | 0.00 | 0.00 | 0.00 | 45 | 1020.2 |
| 20260902163517 | 94 | 107 | 0.0 | 4.0 | 0.00 | 0.00 | 0.00 | 47 | 1020.3 |
| 20260902163017 | 94 | 93 | 0.0 | 5.0 | 0.00 | 0.00 | 0.00 | 48 | 1020.3 |
| 20260902162517 | 93 | 100 | 1.0 | 5.0 | 0.00 | 0.00 | 0.00 | 50 | 1020.3 |
| 20260902162017 | 93 | 0 | 0.0 | 0.0 | 0.00 | 0.00 | 0.00 | 51 | 1020.3 |
| 20260902161517 | 92 | 267 | 0.0 | 4.0 | 0.00 | 0.00 | 0.00 | 51 | 1020.4 |
| 20260902161017 | 92 | 0 | 0.0 | 0.0 | 0.00 | 0.00 | 0.00 | 52 | 1020.5 |
| 20260902160517 | 92 | 0 | 0.0 | 0.0 | 0.00 | 0.00 | 0.00 | 51 | 1020.5 |
| 20260902160018 | 93 | 72 | 0.0 | 3.0 | 0.00 | 0.00 | 0.00 | 50 | 1020.7 |
| 20260902155517 | 93 | 85 | 1.0 | 5.0 | 0.00 | 0.00 | 0.00 | 49 | 1020.7 |
| 20260902155017 | 93 | 85 | 0.0 | 7.0 | 0.00 | 0.00 | 0.00 | 50 | 1020.7 |
| 20260902154516 | 92 | 30 | 0.0 | 3.0 | 0.00 | 0.00 | 0.00 | 50 | 1020.7 |
| 20260902154017 | 92 | 6 | 0.0 | 1.0 | 0.00 | 0.00 | 0.00 | 51 | 1020.7 |
| 20260902153517 | 92 | 10 | 0.0 | 3.0 | 0.00 | 0.00 | 0.00 | 53 | 1020.7 |
| 20260902153018 | 92 | 0 | 0.0 | 0.0 | 0.00 | 0.00 | 0.00 | 52 | 1020.7 |
| 20260902152517 | 92 | 0 | 0.0 | 0.0 | 0.00 | 0.00 | 0.00 | 52 | 1020.7 |
| 20260902152017 | 91 | 56 | 0.0 | 5.0 | 0.00 | 0.00 | 0.00 | 54 | 1020.7 |
| 20260902151516 | 91 | 58 | 5.0 | 2.0 | 0.00 | 0.00 | 0.00 | 56 | 1020.7 |
| 20260902151017 | 91 | 97 | 0.0 | 4.0 | 0.00 | 0.00 | 0.00 | 57 | 1020.7 |
| 20260902150517 | 90 | 54 | 2.0 | 5.0 | 0.00 | 0.00 | 0.00 | 59 | 1020.5 |
| 20260902150017 | 90 | 0 | 0.0 | 0.0 | 0.00 | 0.00 | 0.00 | 61 | 1020.5 |
| 20260902145517 | 89 | 0 | 0.0 | 0.0 | 0.00 | 0.00 | 0.00 | 61 | 1020.5 |
| 20260902145017 | 89 | 0 | 0.0 | 0.0 | 0.00 | 0.00 | 0.00 | 62 | 1020.5 |
| 20260902144518 | 88 | 0 | 0.0 | 0.0 | 0.00 | 0.00 | 0.00 | 64 | 1020.4 |
| 20260902144017 | 88 | 0 | 0.0 | 0.0 | 0.00 | 0.00 | 0.00 | 65 | 1020.5 |
| 20260902143517 | 87 | 0 | 0.0 | 0.0 | 0.00 | 0.00 | 0.00 | 67 | 1020.4 |
| 20260902143017 | 86 | 138 | 0.0 | 2.0 | 0.00 | 0.00 | 0.00 | 68 | 1020.4 |
| 20260902142517 | 86 | 143 | 1.0 | 3.0 | 0.00 | 0.00 | 0.00 | 69 | 1020.4 |
| 20260902142017 | 85 | 130 | 1.0 | 3.0 | 0.00 | 0.00 | 0.00 | 70 | 1020.4 |
| 20260902141517 | 85 | 130 | 2.0 | 2.0 | 0.00 | 0.00 | 0.00 | 71 | 1020.5 |
| 20260902141017 | 84 | 141 | 1.0 | 2.0 | 0.00 | 0.00 | 0.00 | 71 | 1020.5 |
| 20260902140517 | 84 | 0 | 0.0 | 0.0 | 0.00 | 0.00 | 0.00 | 72 | 1020.5 |
| 20260902140017 | 84 | 95 | 0.0 | 1.0 | 0.00 | 0.00 | 0.00 | 72 | 1020.7 |
| 20260902135517 | 83 | 120 | 0.0 | 2.0 | 0.00 | 0.00 | 0.00 | 73 | 1020.5 |
| 20260902135017 | 83 | 54 | 2.0 | 3.0 | 0.00 | 0.00 | 0.00 | 74 | 1020.5 |
| 20260902134517 | 82 | 86 | 1.0 | 3.0 | 0.00 | 0.00 | 0.00 | 75 | 1020.5 |
| 20260902134017 | 82 | 103 | 0.0 | 2.0 | 0.00 | 0.00 | 0.00 | 75 | 1020.5 |
| 20260902133517 | 81 | 104 | 1.0 | 2.0 | 0.00 | 0.00 | 0.00 | 76 | 1020.7 |
| 20260902133017 | 81 | 0 | 0.0 | 0.0 | 0.00 | 0.00 | 0.00 | 77 | 1020.7 |
| 20260902132517 | 80 | 83 | 0.0 | 1.0 | 0.00 | 0.00 | 0.00 | 78 | 1020.7 |
| 20260902132017 | 80 | 55 | 0.0 | 1.0 | 0.00 | 0.00 | 0.00 | 79 | 1020.5 |
| 20260902131517 | 80 | 88 | 1.0 | 4.0 | 0.00 | 0.00 | 0.00 | 80 | 1020.5 |
| 20260902131017 | 79 | 82 | 3.0 | 4.0 | 0.00 | 0.00 | 0.00 | 82 | 1020.4 |
| 20260902130517 | 79 | 86 | 0.0 | 2.0 | 0.00 | 0.00 | 0.00 | 83 | 1020.4 |
| 20260902130017 | 78 | 120 | 1.0 | 3.0 | 0.00 | 0.00 | 0.00 | 84 | 1020.5 |
| 20260902125517 | 78 | 72 | 2.0 | 2.0 | 0.00 | 0.00 | 0.00 | 85 | 1020.4 |
| 20260902125017 | 77 | 95 | 1.0 | 3.0 | 0.00 | 0.00 | 0.00 | 86 | 1020.5 |
| 20260902124517 | 77 | 90 | 3.0 | 3.0 | 0.00 | 0.00 | 0.00 | 87 | 1020.5 |
| 20260902124017 | 77 | 89 | 2.0 | 3.0 | 0.00 | 0.00 | 0.00 | 88 | 1020.4 |
| 20260902123517 | 76 | 0 | 0.0 | 0.0 | 0.00 | 0.00 | 0.00 | 89 | 1020.4 |
| 20260902123017 | 76 | 0 | 0.0 | 0.0 | 0.00 | 0.00 | 0.00 | 89 | 1020.4 |
| 20260902122517 | 76 | 0 | 0.0 | 0.0 | 0.00 | 0.00 | 0.00 | 89 | 1020.4 |
| 20260902122016 | 76 | 0 | 0.0 | 0.0 | 0.00 | 0.00 | 0.00 | 89 | 1020.3 |
| 20260902121517 | 76 | 0 | 0.0 | 0.0 | 0.00 | 0.00 | 0.00 | 89 | 1020.3 |
| 20260902121017 | 76 | 0 | 0.0 | 0.0 | 0.00 | 0.00 | 0.00 | 89 | 1020.3 |
| 20260902120517 | 76 | 0 | 0.0 | 0.0 | 0.00 | 0.00 | 0.00 | 89 | 1020.3 |
| 20260902120017 | 76 | 0 | 0.0 | 0.0 | 0.00 | 0.00 | 0.00 | 89 | 1020.3 |
| 20260902115517 | 76 | 0 | 0.0 | 0.0 | 0.00 | 0.00 | 0.00 | 89 | 1020.3 |
| 20260902115017 | 76 | 0 | 0.0 | 0.0 | 0.00 | 0.00 | 0.00 | 89 | 1020.2 |
| 20260902114517 | 76 | 0 | 0.0 | 0.0 | 0.00 | 0.00 | 0.00 | 89 | 1020.1 |
| 20260902114017 | 76 | 0 | 0.0 | 0.0 | 0.00 | 0.00 | 0.00 | 89 | 1020.0 |
| 20260902113517 | 76 | 0 | 0.0 | 0.0 | 0.00 | 0.00 | 0.00 | 88 | 1020.0 |
| 20260902113017 | 76 | 0 | 0.0 | 0.0 | 0.00 | 0.00 | 0.00 | 88 | 1020.0 |
| 20260902112517 | 76 | 0 | 0.0 | 0.0 | 0.00 | 0.00 | 0.00 | 88 | 1020.0 |
| 20260902112017 | 76 | 0 | 0.0 | 0.0 | 0.00 | 0.00 | 0.00 | 88 | 1019.9 |
| 20260902111516 | 76 | 0 | 0.0 | 0.0 | 0.00 | 0.00 | 0.00 | 88 | 1019.9 |
| 20260902111017 | 76 | 0 | 0.0 | 0.0 | 0.00 | 0.00 | 0.00 | 88 | 1019.9 |
| 20260902110517 | 76 | 0 | 0.0 | 0.0 | 0.00 | 0.00 | 0.00 | 88 | 1019.8 |
| 20260902110017 | 76 | 0 | 0.0 | 0.0 | 0.00 | 0.00 | 0.00 | 88 | 1019.9 |
| 20260902105517 | 76 | 0 | 0.0 | 0.0 | 0.00 | 0.00 | 0.00 | 88 | 1019.8 |
| 20260902105017 | 76 | 0 | 0.0 | 0.0 | 0.00 | 0.00 | 0.00 | 88 | 1019.7 |
| 20260902104518 | 76 | 0 | 0.0 | 0.0 | 0.00 | 0.00 | 0.00 | 88 | 1019.7 |
| 20260902104017 | 76 | 0 | 0.0 | 0.0 | 0.00 | 0.00 | 0.00 | 87 | 1019.7 |
| 20260902103517 | 76 | 0 | 0.0 | 0.0 | 0.00 | 0.00 | 0.00 | 87 | 1019.7 |
| 20260902103017 | 76 | 0 | 0.0 | 0.0 | 0.00 | 0.00 | 0.00 | 87 | 1019.6 |
| 20260902102517 | 76 | 0 | 0.0 | 0.0 | 0.00 | 0.00 | 0.00 | 87 | 1019.6 |
| 20260902102017 | 76 | 0 | 0.0 | 0.0 | 0.00 | 0.00 | 0.00 | 87 | 1019.6 |
| 20260902101517 | 76 | 0 | 0.0 | 0.0 | 0.00 | 0.00 | 0.00 | 87 | 1019.6 |
| 20260902101017 | 76 | 0 | 0.0 | 0.0 | 0.00 | 0.00 | 0.00 | 87 | 1019.5 |
| 20260902100518 | 76 | 0 | 0.0 | 0.0 | 0.00 | 0.00 | 0.00 | 87 | 1019.5 |
| 20260902100017 | 76 | 0 | 0.0 | 0.0 | 0.00 | 0.00 | 0.00 | 87 | 1019.5 |
| 20260902095517 | 76 | 0 | 0.0 | 0.0 | 0.00 | 0.00 | 0.00 | 87 | 1019.5 |
| 20260902095017 | 76 | 0 | 0.0 | 0.0 | 0.00 | 0.00 | 0.00 | 87 | 1019.4 |
| 20260902094517 | 76 | 0 | 0.0 | 0.0 | 0.00 | 0.00 | 0.00 | 87 | 1019.3 |
| 20260902094017 | 76 | 0 | 0.0 | 0.0 | 0.00 | 0.00 | 0.00 | 86 | 1019.2 |
| 20260902093517 | 76 | 0 | 0.0 | 0.0 | 0.00 | 0.00 | 0.00 | 86 | 1019.2 |
| 20260902093017 | 77 | 0 | 0.0 | 0.0 | 0.00 | 0.00 | 0.00 | 86 | 1019.2 |
| 20260902092517 | 76 | 0 | 0.0 | 0.0 | 0.00 | 0.00 | 0.00 | 86 | 1019.1 |
| 20260902092017 | 77 | 0 | 0.0 | 0.0 | 0.00 | 0.00 | 0.00 | 86 | 1019.1 |
| 20260902091517 | 77 | 0 | 0.0 | 0.0 | 0.00 | 0.00 | 0.00 | 86 | 1019.0 |
| 20260902091017 | 77 | 0 | 0.0 | 0.0 | 0.00 | 0.00 | 0.00 | 86 | 1019.0 |
| 20260902090517 | 77 | 0 | 0.0 | 0.0 | 0.00 | 0.00 | 0.00 | 86 | 1019.0 |
| 20260902090017 | 77 | 0 | 0.0 | 0.0 | 0.00 | 0.00 | 0.00 | 86 | 1018.9 |
| 20260902085517 | 77 | 0 | 0.0 | 0.0 | 0.00 | 0.00 | 0.00 | 86 | 1018.9 |
| 20260902085017 | 77 | 0 | 0.0 | 0.0 | 0.00 | 0.00 | 0.00 | 86 | 1018.9 |
| 20260902084518 | 77 | 0 | 0.0 | 0.0 | 0.00 | 0.00 | 0.00 | 86 | 1018.9 |
| 20260902084017 | 77 | 0 | 0.0 | 0.0 | 0.00 | 0.00 | 0.00 | 86 | 1018.8 |
| 20260902083517 | 77 | 0 | 0.0 | 0.0 | 0.00 | 0.00 | 0.00 | 86 | 1018.8 |
| 20260902083017 | 77 | 0 | 0.0 | 0.0 | 0.00 | 0.00 | 0.00 | 85 | 1018.8 |
| 20260902082517 | 77 | 0 | 0.0 | 0.0 | 0.00 | 0.00 | 0.00 | 85 | 1018.7 |
| 20260902082017 | 77 | 0 | 0.0 | 0.0 | 0.00 | 0.00 | 0.00 | 85 | 1018.7 |
| 20260902081517 | 77 | 0 | 0.0 | 0.0 | 0.00 | 0.00 | 0.00 | 85 | 1018.7 |
| 20260902081017 | 77 | 0 | 0.0 | 0.0 | 0.00 | 0.00 | 0.00 | 85 | 1018.7 |
| 20260902080517 | 77 | 0 | 0.0 | 0.0 | 0.00 | 0.00 | 0.00 | 85 | 1018.6 |
| 20260902080018 | 77 | 0 | 0.0 | 0.0 | 0.00 | 0.00 | 0.00 | 84 | 1018.6 |
| 20260902075517 | 77 | 0 | 0.0 | 0.0 | 0.00 | 0.00 | 0.00 | 84 | 1018.7 |
| 20260902075017 | 78 | 0 | 0.0 | 0.0 | 0.00 | 0.00 | 0.00 | 84 | 1018.7 |
| 20260902074517 | 78 | 0 | 0.0 | 0.0 | 0.00 | 0.00 | 0.00 | 84 | 1018.7 |
| 20260902074017 | 78 | 0 | 0.0 | 0.0 | 0.00 | 0.00 | 0.00 | 84 | 1018.7 |
| 20260902073517 | 78 | 0 | 0.0 | 0.0 | 0.00 | 0.00 | 0.00 | 83 | 1018.6 |
| 20260902073017 | 78 | 0 | 0.0 | 0.0 | 0.00 | 0.00 | 0.00 | 83 | 1018.6 |
| 20260902072517 | 78 | 0 | 0.0 | 0.0 | 0.00 | 0.00 | 0.00 | 83 | 1018.7 |
| 20260902072017 | 78 | 0 | 0.0 | 0.0 | 0.00 | 0.00 | 0.00 | 82 | 1018.7 |
| 20260902071516 | 78 | 0 | 0.0 | 0.0 | 0.00 | 0.00 | 0.00 | 82 | 1018.8 |
| 20260902071017 | 78 | 0 | 0.0 | 0.0 | 0.00 | 0.00 | 0.00 | 82 | 1018.7 |
| 20260902070517 | 78 | 0 | 0.0 | 0.0 | 0.00 | 0.00 | 0.00 | 81 | 1018.7 |
| 20260902070017 | 78 | 0 | 0.0 | 0.0 | 0.00 | 0.00 | 0.00 | 81 | 1018.8 |
| 20260902065517 | 79 | 0 | 0.0 | 0.0 | 0.00 | 0.00 | 0.00 | 81 | 1018.8 |
| 20260902065017 | 79 | 0 | 0.0 | 0.0 | 0.00 | 0.00 | 0.00 | 81 | 1018.7 |
| 20260902064518 | 79 | 0 | 0.0 | 0.0 | 0.00 | 0.00 | 0.00 | 80 | 1018.6 |
| 20260902064017 | 79 | 0 | 0.0 | 0.0 | 0.00 | 0.00 | 0.00 | 80 | 1018.7 |
| 20260902063518 | 78 | 0 | 0.0 | 0.0 | 0.00 | 0.00 | 0.00 | 80 | 1018.6 |
| 20260902063017 | 79 | 0 | 0.0 | 0.0 | 0.00 | 0.00 | 0.00 | 80 | 1018.7 |
| 20260902062517 | 79 | 0 | 0.0 | 0.0 | 0.00 | 0.00 | 0.00 | 80 | 1018.7 |
| 20260902062018 | 79 | 0 | 0.0 | 0.0 | 0.00 | 0.00 | 0.00 | 80 | 1018.7 |
| 20260902061517 | 79 | 0 | 0.0 | 0.0 | 0.00 | 0.00 | 0.00 | 80 | 1018.7 |
| 20260902061017 | 79 | 0 | 0.0 | 0.0 | 0.00 | 0.00 | 0.00 | 80 | 1018.7 |
| 20260902060517 | 79 | 0 | 0.0 | 0.0 | 0.00 | 0.00 | 0.00 | 80 | 1018.8 |
| 20260902060017 | 79 | 0 | 0.0 | 0.0 | 0.00 | 0.00 | 0.00 | 80 | 1018.8 |
| 20260902055517 | 79 | 0 | 0.0 | 0.0 | 0.00 | 0.00 | 0.00 | 80 | 1018.9 |
| 20260902055017 | 79 | 0 | 0.0 | 0.0 | 0.00 | 0.00 | 0.00 | 79 | 1018.9 |
| 20260902054517 | 79 | 0 | 0.0 | 0.0 | 0.00 | 0.00 | 0.00 | 79 | 1019.0 |
| 20260902054017 | 79 | 0 | 0.0 | 0.0 | 0.00 | 0.00 | 0.00 | 79 | 1019.0 |
| 20260902053517 | 79 | 0 | 0.0 | 0.0 | 0.00 | 0.00 | 0.00 | 79 | 1019.0 |
| 20260902053018 | 79 | 0 | 0.0 | 0.0 | 0.00 | 0.00 | 0.00 | 78 | 1019.0 |
| 20260902052517 | 79 | 0 | 0.0 | 0.0 | 0.00 | 0.00 | 0.00 | 78 | 1019.0 |
| 20260902052017 | 79 | 0 | 0.0 | 0.0 | 0.00 | 0.00 | 0.00 | 78 | 1018.9 |
| 20260902051517 | 80 | 0 | 0.0 | 0.0 | 0.00 | 0.00 | 0.00 | 78 | 1018.9 |
| 20260902051017 | 80 | 0 | 0.0 | 0.0 | 0.00 | 0.00 | 0.00 | 77 | 1018.9 |
| 20260902050517 | 80 | 0 | 0.0 | 0.0 | 0.00 | 0.00 | 0.00 | 77 | 1018.8 |
| 20260902050017 | 80 | 0 | 0.0 | 0.0 | 0.00 | 0.00 | 0.00 | 77 | 1018.9 |
| 20260902045517 | 80 | 0 | 0.0 | 0.0 | 0.00 | 0.00 | 0.00 | 76 | 1018.9 |
| 20260902045018 | 80 | 0 | 0.0 | 0.0 | 0.00 | 0.00 | 0.00 | 76 | 1018.9 |
| 20260902044517 | 80 | 0 | 0.0 | 0.0 | 0.00 | 0.00 | 0.00 | 76 | 1019.0 |
| 20260902044017 | 80 | 0 | 0.0 | 0.0 | 0.00 | 0.00 | 0.00 | 75 | 1018.9 |
| 20260902043518 | 80 | 0 | 0.0 | 0.0 | 0.00 | 0.00 | 0.00 | 75 | 1019.0 |
| 20260902043017 | 80 | 0 | 0.0 | 0.0 | 0.00 | 0.00 | 0.00 | 75 | 1019.1 |
| 20260902042517 | 80 | 0 | 0.0 | 0.0 | 0.00 | 0.00 | 0.00 | 74 | 1019.1 |
| 20260902042017 | 81 | 0 | 0.0 | 0.0 | 0.00 | 0.00 | 0.00 | 74 | 1019.1 |
| 20260902041517 | 81 | 0 | 0.0 | 0.0 | 0.00 | 0.00 | 0.00 | 73 | 1019.1 |
| 20260902041017 | 81 | 0 | 0.0 | 0.0 | 0.00 | 0.00 | 0.00 | 73 | 1019.1 |
| 20260902040517 | 81 | 0 | 0.0 | 0.0 | 0.00 | 0.00 | 0.00 | 72 | 1019.1 |
| 20260902040017 | 81 | 0 | 0.0 | 0.0 | 0.00 | 0.00 | 0.00 | 72 | 1019.2 |
| 20260902035518 | 81 | 0 | 0.0 | 0.0 | 0.00 | 0.00 | 0.00 | 72 | 1019.1 |
| 20260902035017 | 81 | 0 | 0.0 | 0.0 | 0.00 | 0.00 | 0.00 | 72 | 1019.1 |
| 20260902034518 | 82 | 0 | 0.0 | 0.0 | 0.00 | 0.00 | 0.00 | 72 | 1019.1 |
| 20260902034017 | 81 | 0 | 0.0 | 0.0 | 0.00 | 0.00 | 0.00 | 71 | 1019.0 |
| 20260902033517 | 81 | 0 | 0.0 | 0.0 | 0.00 | 0.00 | 0.00 | 71 | 1019.1 |
| 20260902033017 | 81 | 0 | 0.0 | 0.0 | 0.00 | 0.00 | 0.00 | 71 | 1019.1 |
| 20260902032517 | 81 | 0 | 0.0 | 0.0 | 0.00 | 0.00 | 0.00 | 71 | 1019.1 |
| 20260902032017 | 81 | 0 | 0.0 | 0.0 | 0.00 | 0.00 | 0.00 | 71 | 1019.0 |
| 20260902031517 | 82 | 0 | 0.0 | 0.0 | 0.00 | 0.00 | 0.00 | 70 | 1019.0 |
| 20260902031017 | 82 | 0 | 0.0 | 0.0 | 0.00 | 0.00 | 0.00 | 70 | 1019.0 |
| 20260902030517 | 82 | 0 | 0.0 | 0.0 | 0.00 | 0.00 | 0.00 | 70 | 1019.0 |
| 20260902030017 | 82 | 0 | 0.0 | 0.0 | 0.00 | 0.00 | 0.00 | 70 | 1019.0 |
| 20260902025517 | 82 | 0 | 0.0 | 0.0 | 0.00 | 0.00 | 0.00 | 70 | 1019.0 |
| 20260902025017 | 83 | 0 | 0.0 | 0.0 | 0.00 | 0.00 | 0.00 | 69 | 1019.0 |
| 20260902024517 | 83 | 0 | 0.0 | 0.0 | 0.00 | 0.00 | 0.00 | 69 | 1018.9 |
| 20260902024017 | 83 | 0 | 0.0 | 0.0 | 0.00 | 0.00 | 0.00 | 69 | 1018.9 |
| 20260902023517 | 83 | 0 | 0.0 | 0.0 | 0.00 | 0.00 | 0.00 | 69 | 1018.9 |
| 20260902023017 | 83 | 0 | 0.0 | 0.0 | 0.00 | 0.00 | 0.00 | 68 | 1018.8 |
| 20260902022517 | 83 | 0 | 0.0 | 0.0 | 0.00 | 0.00 | 0.00 | 68 | 1018.8 |
| 20260902022017 | 83 | 0 | 0.0 | 0.0 | 0.00 | 0.00 | 0.00 | 67 | 1018.7 |
| 20260902021517 | 83 | 0 | 0.0 | 0.0 | 0.00 | 0.00 | 0.00 | 68 | 1018.7 |
| 20260902021017 | 83 | 0 | 0.0 | 0.0 | 0.00 | 0.00 | 0.00 | 67 | 1018.7 |
| 20260902020517 | 83 | 0 | 0.0 | 0.0 | 0.00 | 0.00 | 0.00 | 68 | 1015.4 |
| 20260902020017 | 83 | 0 | 0.0 | 0.0 | 0.00 | 0.00 | 0.00 | 67 | 1018.5 |
| 20260902015517 | 84 | 0 | 0.0 | 0.0 | 0.00 | 0.00 | 0.00 | 67 | 1018.4 |
| 20260902015017 | 84 | 0 | 0.0 | 0.0 | 0.00 | 0.00 | 0.00 | 66 | 1018.3 |
| 20260902014517 | 84 | 0 | 0.0 | 0.0 | 0.00 | 0.00 | 0.00 | 66 | 1018.3 |
| 20260902014017 | 84 | 0 | 0.0 | 0.0 | 0.00 | 0.00 | 0.00 | 65 | 1018.3 |
| 20260902013517 | 84 | 0 | 0.0 | 0.0 | 0.00 | 0.00 | 0.00 | 65 | 1018.2 |
| 20260902013017 | 84 | 0 | 0.0 | 0.0 | 0.00 | 0.00 | 0.00 | 65 | 1018.2 |
| 20260902012517 | 84 | 0 | 0.0 | 0.0 | 0.00 | 0.00 | 0.00 | 64 | 1018.1 |
| 20260902012018 | 85 | 0 | 0.0 | 0.0 | 0.00 | 0.00 | 0.00 | 64 | 1018.1 |
| 20260902011523 | 85 | 0 | 0.0 | 0.0 | 0.00 | 0.00 | 0.00 | 63 | 1017.1 |
| 20260902011017 | 85 | 0 | 0.0 | 0.0 | 0.00 | 0.00 | 0.00 | 62 | 1018.0 |
| 20260902010517 | 85 | 0 | 0.0 | 0.0 | 0.00 | 0.00 | 0.00 | 62 | 1018.0 |
| 20260902010017 | 86 | 0 | 0.0 | 0.0 | 0.00 | 0.00 | 0.00 | 61 | 1013.1 |
| 20260902005517 | 86 | 0 | 0.0 | 0.0 | 0.00 | 0.00 | 0.00 | 1004.4 | |
| 20260902005017 | 86 | 0 | 0.0 | 0.0 | 0.00 | 0.00 | 0.00 | 61 | 1017.9 |
| 20260902004517 | 86 | 0 | 0.0 | 0.0 | 0.00 | 0.00 | 0.00 | 60 | 1014.7 |
| 20260902004017 | 86 | 0 | 0.0 | 0.0 | 0.00 | 0.00 | 0.00 | 59 | 1017.8 |
| 20260902003517 | 87 | 0 | 0.0 | 0.0 | 0.00 | 0.00 | 0.00 | 59 | 1017.8 |
| 20260902003017 | 87 | 0 | 0.0 | 0.0 | 0.00 | 0.00 | 0.00 | 58 | 1017.8 |
| 20260902002517 | 87 | 0 | 0.0 | 0.0 | 0.00 | 0.00 | 0.00 | 57 | 1017.8 |
| 20260902002017 | 88 | 0 | 0.0 | 0.0 | 0.00 | 0.00 | 0.00 | 57 | 1017.8 |
| 20260902001517 | 88 | 0 | 0.0 | 0.0 | 0.00 | 0.00 | 0.00 | 56 | 1017.8 |
| 20260902001017 | 88 | 0 | 0.0 | 0.0 | 0.00 | 0.00 | 0.00 | 55 | 1017.8 |
| 20260902000517 | 89 | 0 | 0.0 | 0.0 | 0.00 | 0.00 | 0.00 | 55 | 1017.7 |
| 20260902000017 | 89 | 0 | 0.0 | 0.0 | 0.00 | 0.00 | 0.00 | 53 | 1017.8 |
| 20260901235517 | 90 | 0 | 0.0 | 0.0 | 0.00 | 0.00 | 0.00 | 52 | 1017.9 |
| 20260901235017 | 91 | 0 | 0.0 | 0.0 | 0.00 | 0.00 | 0.00 | 51 | 1017.9 |
| 20260901234517 | 91 | 0 | 0.0 | 0.0 | 0.00 | 0.00 | 0.00 | 50 | 1017.9 |
| 20260901234017 | 92 | 0 | 0.0 | 0.0 | 0.00 | 0.00 | 0.00 | 48 | 1017.9 |
| 20260901233517 | 92 | 64 | 0.0 | 3.0 | 0.00 | 0.00 | 0.00 | 47 | 1018.0 |
| 20260901233017 | 92 | 75 | 0.0 | 2.0 | 0.00 | 0.00 | 0.00 | 46 | 1018.0 |
| 20260901232517 | 92 | 78 | 0.0 | 3.0 | 0.00 | 0.00 | 0.00 | 45 | 1018.1 |
| 20260901232017 | 93 | 102 | 0.0 | 6.0 | 0.00 | 0.00 | 0.00 | 45 | 1018.1 |
| 20260901231517 | 93 | 0 | 0.0 | 0.0 | 0.00 | 0.00 | 0.00 | 44 | 1018.0 |
| 20260901231017 | 93 | 103 | 0.0 | 6.0 | 0.00 | 0.00 | 0.00 | 44 | 1018.0 |
| 20260901230517 | 93 | 90 | 2.0 | 6.0 | 0.00 | 0.00 | 0.00 | 43 | 1018.0 |
| 20260901230017 | 93 | 69 | 2.0 | 6.0 | 0.00 | 0.00 | 0.00 | 43 | 1018.0 |
| 20260901225517 | 93 | 110 | 0.0 | 4.0 | 0.00 | 0.00 | 0.00 | 43 | 1018.0 |
| 20260901225017 | 93 | 86 | 0.0 | 5.0 | 0.00 | 0.00 | 0.00 | 42 | 1018.0 |